Regional Weather Roundup
Issued by NWS

Home | Current Version | Previous Version | Graphics & Text | Print | Product List | Glossary Off
Versions: 1 2 3 4 5 6 7 8 9 10 11 12 13 14 15 16 17 18 19 20 21 22 23 24 25 26 27 28 29 30 31 32 33 34 35 36 37 38 39 40 41 42 43 44 45 46 47 48 49 50

000
ASUS43 KMKX 251359
RWRWI

WISCONSIN REGIONAL WEATHER ROUNDUP
NATIONAL WEATHER SERVICE MILWAUKEE/SULLIVAN WI
800 AM CST SUN FEB 25 2018

NOTE: "FAIR" INDICATES FEW OR NO CLOUDS BELOW 12,000 FEET WITH NO
SIGNIFICANT WEATHER AND/OR OBSTRUCTIONS TO VISIBILITY.

WIZ001-002-006>008-014>016-023>028-251500-
NORTHWEST WISCONSIN

CITY           SKY/WX    TMP DP  RH WIND       PRES   REMARKS
SUPERIOR ARPT  CLOUDY    24  19  80 W20G28    29.45R WCI   9
ASHLAND        CLOUDY    25  20  81 SW20G33   29.42R WCI  11
HAYWARD        CLOUDY    22  17  81 W13G22    29.48R WCI  10
SIREN          CLOUDY    22  18  87 W14G21    29.54R WCI   9
CUMBERLAND     CLOUDY    19  18  93 W16       29.54R WCI   5
RICE LAKE      CLOUDY    19  17  92 SW12G21   29.58R WCI   7
CHETEK         CLOUDY    19  16  90 W9G20     29.58R WCI   8
LADYSMITH      CLOUDY    20  18  89 SW15G23   29.54R FOG     WCI   7
EAU CLAIRE     NOT AVBL
MENOMONIE      CLOUDY    21  17  85 SW14G24   29.64R WCI   8
NEW RICHMOND   CLOUDY    19  15  85 SW17G23   29.61R WCI   4
OSCEOLA        CLOUDY    19  19 100 SW15G22   29.64R WCI   5
$$

WIZ003>005-009-010-017-018-251500-
NORTH CENTRAL WISCONSIN

CITY           SKY/WX    TMP DP  RH WIND       PRES   REMARKS
MANITOWISH WTR CLOUDY    24  21  91 W16G23    29.37R WCI  10
ARBOR VITAE    LGT SNOW  25  21  86 SW17G24   29.38R WCI  11
WOODRUFF       LGT SNOW  25  21  86 SW17G24   29.38R WCI  11
RHINELANDER    LGT SNOW  21  18  88 W22G30    29.43R VSB 1   WCI   5
EAGLE RIVER    CLOUDY    24  21  88 W16G29    29.37R FOG     WCI  11
LAND O LAKES   CLOUDY    25  21  83 W16G25    29.36R WCI  13
PHILLIPS       CLOUDY    20  18  91 SW15G23   29.46R FOG     WCI   6
TOMAHAWK       LGT SNOW  19  16  87 SW10G18   29.47R WCI   8
MEDFORD        LGT SNOW  17  14  87 W21G26    29.52R WCI   0
MERRILL        CLOUDY    20  17  87 W15G31    29.52R FOG     WCI   6
$$

WIZ029-030-035-036-043>047-251500-
CENTRAL WISCONSIN

CITY           SKY/WX    TMP DP  RH WIND       PRES   REMARKS
WAUSAU         CLOUDY    21  16  81 W21G31    29.54R HAZE    WCI   5
MOSINEE        LGT SNOW  21  19  93 SW16G28   29.57R WCI   7
MARSHFIELD     CLOUDY    20  17  88 W17G28    29.57R FOG     WCI   5
STEVENS POINT  CLOUDY    20  18  89 W13G22    29.58R WCI   8
WAUPACA        CLOUDY    27  20  74 W17G32    29.59R WCI  14
WAUTOMA        CLOUDY    25  19  78 W17G23    29.65  WCI  12
WISC RAPIDS    CLOUDY    21  16  81 MISG      29.64R
CAMP DOUGLAS   NOT AVBL
$$

WIZ011>013-019>022-031-037>040-048>050-251500-
NORTHEAST WISCONSIN

CITY           SKY/WX    TMP DP  RH WIND       PRES   REMARKS
ANTIGO         CLOUDY    20  17  90 W22G33    29.47R FOG     WCI   3
SHAWANO        CLOUDY    28  21  76 W18G25    29.53R WCI  15
OCONTO         CLOUDY    27  20  77 W20G31    29.51R WCI  13
STURGEON BAY   CLOUDY    27  21  78 W30G39    29.50R WCI  11
GREEN BAY      CLOUDY    28  19  69 W22G30    29.57R WCI  14
MANITOWOC      CLOUDY    28  20  71 W30G38    29.58R WCI  12
APPLETON       CLOUDY    27  18  69 W21G30    29.58R WCI  13
CLINTONVILLE   CLOUDY    26  19  76 W18G31    29.57R WCI  12
OSHKOSH        PTSUNNY   27  18  69 W16G25    29.63R WCI  15
$$

WIZ032>034-041-042-053>061-251500-
SOUTHWEST WISCONSIN

CITY           SKY/WX    TMP DP  RH WIND       PRES   REMARKS
LA CROSSE      CLOUDY    23  18  81 SW15      29.73R WCI  10
SPARTA         CLOUDY    22  19  87 SW7G17    29.70R WCI  13
VIROQUA        CLOUDY    20  19  97 W18       29.70R WCI   5
BOSCOBEL       CLOUDY    24  17  74 SW12      29.79R WCI  13
PRAIRIE DU CHI CLOUDY    23  17  77 SW12G17   29.81R WCI  12
PLATTEVILLE    CLOUDY    24  21  90 SW17G24   29.80R WCI  10
$$

WIZ056-057-062-063-064-067-068-251500-
SOUTH CENTRAL WISCONSIN

CITY           SKY/WX    TMP DP  RH WIND       PRES   REMARKS
REEDSBURG      CLOUDY    23  18  80 SW10      29.71R WCI  12
BARABOO/DELLS  CLOUDY    24  18  79 SW12G17   29.70R WCI  12
LONE ROCK      PTSUNNY   24  18  77 W17G33    29.77R WCI  11
MINERAL POINT  CLOUDY    27  23  86 W14G23    29.75R WCI  15
MADISON        PTSUNNY   26  20  77 W10G21    29.73R WCI  16
MIDDLETON      CLOUDY    28  22  78 W20       29.73R WCI  15
WATERTOWN      FAIR      28  21  76 W18G28    29.69R WCI  15
MONROE         PTSUNNY   28  23  80 SW23G32   29.76R WCI  14
JANESVILLE     PTSUNNY   30  25  80 W17G25    29.77R WCI  18
$$

WIZ051-052-058>065-066-070>072-251500-
SOUTHEAST WISCONSIN

CITY           SKY/WX    TMP DP  RH WIND       PRES   REMARKS
MILWAUKEE      FAIR      33  23  66 W21G38    29.69R WCI  21
WAUKESHA       MOSUNNY   28  21  74 W21G26    29.70R WCI  15
MILWAUKEE/TIMM MOSUNNY   30  19  64 W18G33    29.69R WCI  18
RACINE         FAIR      33  23  66 W14G36    29.72R WCI  23
BURLINGTON     FAIR      31  23  71 W16G29    29.73R WCI  20
KENOSHA        FAIR      33  23  66 W26G40    29.73R WCI  20
FOND DU LAC    PTSUNNY   28  18  66 W21G31    29.65R WCI  15
SHEBOYGAN      PTSUNNY   29  22  75 W30G40    29.63R WCI  13
WEST BEND      PTSUNNY   30  23  74 W18G32    29.64R WCI  18
JUNEAU         CLOUDY    27  21  78 SW24      29.69R WCI  12
$$

LSZ147-162-251500-
LAKE SUPERIOR

STATION/POSITION TIME  TEMP    WIND        PRES    WAVE
                       AIR SEA DIR/SP/G            HT/PER
                 (UTC) (F)     (DEG/KT/KT) (MB)    (FT/S)
DEVILS ISLAND    1300   29     250/ 29/ 35  993.0R
SAXON HARBOR     1340   27     230/ 12/ 22  994.9R
$$

LMZ867-665-643>646-251500-
LAKE MICHIGAN

STATION/POSITION TIME  TEMP    WIND        PRES    WAVE
                       AIR SEA DIR/SP/G            HT/PER
                 (UTC) (F)     (DEG/KT/KT) (MB)    (FT/S)
NORTHPORT PIER   1340   28                  997.0R
KEWAUNEE LAKESHO 1324   29     260/ 25/ 31  999.1
SHEBOYGAN LAKESH 1300   29     250/ 18/ 23 1002.5R
PORT WASHINGTON  1330   31     260/ 14/ 27 1005.1R
KENOSHA   LAKESH 1300   33     250/ 14/ 32 1006.4
$$

TC  - TEMPERATURE IN CELSIUS
VSB - VISIBILITY IN STATUTE MILES
WCI - WIND CHILL INDEX
HX  - HEAT INDEX





USA.gov is the U.S. government's official web portal to all federal, state and local government web resources and services.